Location: Unspecified
(42.3650°N, 71.1030°W)
Time: 15:40:37
(UTC+00:00)

Transit 4A - Pass Details

Date: 30 June 2024
Orbit: 870 x 973 km, 66.8° (Epoch: 17 July)

Event Time Altitude Azimuth Distance (km) Brightness Sun altitude
Rises 08:04:15 0° 338° (NNW) 3,491 11.2 -10.4°
Reaches altitude 10° 08:07:48 10° 359° (N) 2,565 10.9 -10.0°
Maximum altitude 08:11:24 16° 37° (NE) 2,167 11.2 -9.5°
Drops below altitude 10° 08:15:02 10° 74° (ENE) 2,600 11.4 -9.0°
Sets 08:18:39 0° 95° (E) 3,561 11.6 -8.5°
